Regional Weather Roundup
Issued by NWS

Home | Current Version | Previous Version | Text Only | Print | Product List | Glossary Off
Versions: 1 2 3 4 5 6 7 8 9 10 11 12 13 14 15 16 17 18 19 20 21 22 23 24 25 26 27 28 29

000
ASUS45 KCYS 181410
RWRWY

WYOMING REGIONAL WEATHER ROUNDUP
NATIONAL WEATHER SERVICE CHEYENNE WY
800 AM MDT WED APR 18 2018

NOTE:  "FAIR" INDICATES FEW OR NO CLOUDS BELOW 12,000 FEET
WITH NO SIGNIFICANT WEATHER AND/OR OBSTRUCTIONS TO VISIBILITY.

WYZ001-181500-
YELLOWSTONE NATIONAL PARK

CITY           SKY/WX    TMP DP  RH WIND       PRES   REMARKS
LK YELLOWSTONE   N/A     16  12  84 E3        30.25R
W YELLOWSTONE  NOT AVBL

$$
WYZ002>013-054>058-071-098>099-181500-
NORTHERN WYOMING

CITY           SKY/WX    TMP DP  RH WIND       PRES   REMARKS
JACKSON        FAIR      21  17  84 N3        30.28R
CODY           FAIR      37  17  44 SW7       30.23R WCI  32
GREYBULL       FAIR      33  30  88 CALM      30.24R
WORLAND        FAIR      30  25  81 S3        30.23R
SHERIDAN       FAIR      39  26  59 NW8       30.22R WCI  33
BUFFALO        FAIR      38  22  52 N7        30.21R WCI  33
GILLETTE       FAIR      36  27  69 NW15      30.19R WCI  27
HULETT         FAIR      36  28  75 NW8       30.18R WCI  29
NEWCASTLE      FAIR      34  28  80 NW13G22   30.16S WCI  25

$$
WYZ014>020-022>026-101>103-181500-
CENTRAL WYOMING

CITY           SKY/WX    TMP DP  RH WIND       PRES   REMARKS
BIG PINEY      FAIR      17  11  77 E9        30.28R WCI   6
PINEDALE       FAIR      18  14  86 CALM      30.29R
DUBOIS         FAIR      23  14  68 NW13      30.21R WCI  11
LANDER         FAIR      27  17  66 VRB3      30.22R
RIVERTON       FAIR      30   7  37 SW9       30.23R WCI  22
CASPER         FAIR      23  18  81 W10       30.23R WCI  12
DOUGLAS        FAIR      31  24  75 NW16      30.23R WCI  20

$$
WYZ021-027>030-104>119-181500-
SOUTHERN WYOMING

CITY           SKY/WX    TMP DP  RH WIND       PRES   REMARKS
EVANSTON       FAIR      23  14  68 CALM      30.24R
KEMMERER       FAIR      21  16  79 N9        30.25S WCI  11
FORT BRIDGER   FAIR      26  15  60 W3        30.29R
ROCK SPRINGS   FAIR      25  14  63 CALM      30.27R
DIXON          FAIR      19  13  79 SE5       30.34R WCI  12
RAWLINS        FAIR      25  14  63 S8G16     30.26R WCI  16
SARATOGA       FAIR      27  16  63 E3        30.28R
LARAMIE        FAIR      23  15  71 W12       30.21R WCI  12
CHEYENNE       FAIR      33  16  49 NW21G35   30.20R WCI  21
TORRINGTON     FAIR      36  27  69 NW17      30.18R WCI  26
PINE BLUFFS    FAIR      36  19  51 MISG      30.19R

$$




USA.gov is the U.S. government's official web portal to all federal, state and local government web resources and services.